Location: Unspecified
(0.0000°N, 0.0000°E)
Time: 13:48:42
(UTC+00:00)

Altair - Pass Details

Date: 29 October 2021
Orbit: 1502 x 1682 km, 47.2° (Epoch: 26 November)

Event Time Altitude Azimuth Distance (km) Brightness Sun altitude
Rises 09:03:11 0° 335° (NNW) 4,844 9.8 48.0°
Reaches altitude 10° 09:06:32 10° 342° (NNW) 3,880 9.5 48.8°
Maximum altitude 09:15:49 43° 50° (NE) 2,215 9.3 50.9°
Drops below altitude 10° 09:25:12 10° 118° (ESE) 3,941 10.5 53.1°
Sets 09:28:36 0° 124° (SE) 4,927 10.7 53.9°
